Regional Weather Roundup
Issued by NWS Albany, NY

Home | Current Version | Previous Version | Graphics & Text | Print | Product List | Glossary On
Versions: 1 2 3 4 5 6 7 8 9 10 11 12 13 14 15 16 17 18 19 20 21 22 23 24 25 26 27
000
ASUS41 KALY 271410
RWRALY

NEW YORK STATE HOURLY WEATHER ROUNDUP
NATIONAL WEATHER SERVICE ALBANY NY
1000 AM EDT SAT AUG 27 2016

NOTE: "FAIR" INDICATES FEW OR NO CLOUDS BELOW 12,000 FEET WITH NO
SIGNIFICANT WEATHER AND/OR NO OBSTRUCTIONS TO VISIBILITY.

NYZ032-033-038>043-046>054-057>066-NYZ062>081-082-084-271500-
EAST


CITY           SKY/WX    TMP DP  RH WIND       PRES   REMARKS
ALBANY         MOSUNNY   74  64  71 CALM      30.21S
GLENS FALLS    SUNNY     73  61  65 CALM      30.21R
POUGHKEEPSIE   SUNNY     76  64  66 CALM      30.20S
NEWBURGH       SUNNY     75  66  73 CALM      30.23R
MONTGOMERY     SUNNY     77  64  64 NE5       30.22R
WHITE PLAINS   SUNNY     81  62  52 NE5       30.20R
ISLIP          MOSUNNY   83  61  47 NE10      30.18R
NEW YORK CITY  MOSUNNY   81  63  54 NE9       30.19R
CENTRAL PARK     N/A     81  59  47 MISG        N/A
$$

NYZ005>009-017-018-044>046-055-056-271500-
CENTRAL


CITY           SKY/WX    TMP DP  RH WIND       PRES   REMARKS
FULTON         SUNNY     74  64  71 SW6       30.22R
SYRACUSE       MOSUNNY   74  65  73 CALM      30.22R
ROME           CLOUDY    68  64  87 CALM      30.24R
ELMIRA         SUNNY     70  63  78 SW5       30.24S
BINGHAMTON     MOSUNNY   70  64  81 CALM      30.26S
MONTICELLO     SUNNY     72  61  68 CALM      30.27R
$$

NYZ026>034-041>043-087-271500-
NORTH


CITY           SKY/WX    TMP DP  RH WIND       PRES   REMARKS
WATERTOWN      SUNNY     74  64  71 W7        30.21R
FORT DRUM      NOT AVBL
MASSENA        SUNNY     72  58  61 E7        30.24R
SARANAC LAKE   SUNNY     69  59  70 CALM      30.24R
PLATTSBURGH    SUNNY     72  59  63 N9        30.23R
$$

NYZ001>004-010>016-019>021-085-271500-
WEST


CITY           SKY/WX    TMP DP  RH WIND       PRES   REMARKS
NIAGARA FALLS  MOSUNNY   75  60  59 E6        30.22S
BUFFALO        MOSUNNY   73  60  63 SE6       30.23S
DUNKIRK        SUNNY     76  64  66 SE6       30.22R
JAMESTOWN      SUNNY     72  61  68 SE3       30.26S
WELLSVILLE     MOSUNNY   65  63  93 VRB3      30.30R
ROCHESTER      MOSUNNY   74  62  66 VRB3      30.23S
PENN YAN       SUNNY     72  63  73 CALM      30.25R
$$

             KEY
       WCI = WIND CHILL INDEX
       VSB = VISIBILITY
       HX  = HEAT INDEX
$$




USA.gov is the U.S. government's official web portal to all federal, state and local government web resources and services.